Location: Aufkirchen
(47.9603°N, 11.3653°E)
Time: 23:46:27
(UTC+01:00)

Transit 2A Rocket - All Passes

Search period start: 05 December 2020 00:00
Search period end: 15 December 2020 00:00
Orbit: 589 x 914 km, 66.7° (Epoch: 04 December)

Date Brightness Start Highest point End Pass type
(mag) Time Alt. Az. Time Alt. Az. Time Alt. Az.
05 Dec - 00:14:56 10° S 00:20:31 44° ESE 00:25:47 10° NE night (unlit)
05 Dec - 01:57:41 10° WSW 02:03:13 41° NW 02:08:21 10° NNE night (unlit)
05 Dec - 03:44:19 10° NW 03:47:13 14° NNW 03:50:02 10° N visible
05 Dec - 07:13:46 10° NNW 07:17:06 17° NNE 07:20:16 10° ENE visible
05 Dec - 08:55:46 10° NNW 09:00:40 71° NE 09:05:08 10° SE daylight
05 Dec - 10:39:40 10° WNW 10:42:32 16° WSW 10:45:17 10° SW daylight
05 Dec - 23:33:10 10° SSE 23:38:06 28° ESE 23:42:49 10° NE night (unlit)
06 Dec - 01:14:38 10° SW 01:20:28 61° NW 01:25:53 10° NNE night (unlit)
06 Dec - 03:00:17 10° WNW 03:04:06 18° NNW 03:07:44 10° NNE visible
06 Dec - 06:31:29 10° N 06:33:58 13° NNE 06:36:22 10° NE visible
06 Dec - 08:13:14 10° NNW 08:17:57 44° NE 08:22:16 10° ESE daylight
06 Dec - 09:56:15 10° NW 10:00:17 28° WSW 10:04:04 10° S daylight
06 Dec - 22:52:03 10° SE 22:55:48 18° ESE 22:59:24 10° ENE night (unlit)
07 Dec - 00:31:52 10° SSW 00:37:48 90° ESE 00:43:19 10° NE night (unlit)
07 Dec - 02:16:30 10° W 02:21:04 24° NW 02:25:23 10° NNE night (unlit)
07 Dec - 04:04:48 10° NNW 04:05:38 10° NNW 04:06:28 10° N visible
07 Dec - 05:49:21 10° N 05:50:45 11° NNE 05:52:08 10° NNE visible
07 Dec - 07:30:47 10° NNW 07:35:06 29° NE 07:39:07 10° ESE daylight
07 Dec - 09:13:17 10° NW 09:17:55 48° WSW 09:22:11 10° S daylight
07 Dec - 23:49:26 10° SSW 23:55:15 59° ESE 00:00:39 10° NE night (unlit)
08 Dec - 01:32:58 10° WSW 01:38:08 33° NW 01:43:00 10° NNE night (unlit)
08 Dec - 03:20:14 10° NW 03:22:23 12° NNW 03:24:29 10° N visible
08 Dec - 06:48:24 10° NNW 06:52:08 21° NNE 06:55:40 10° E visible
08 Dec - 08:30:34 10° NW 08:35:25 84° WSW 08:39:52 10° SSE daylight
08 Dec - 10:15:53 10° W 10:17:00 11° WSW 10:18:04 10° WSW daylight
08 Dec - 23:07:23 10° S 23:12:46 37° ESE 23:17:50 10° NE night (unlit)
09 Dec - 00:49:43 10° WSW 00:55:20 47° NW 01:00:33 10° NNE night (unlit)
09 Dec - 02:36:02 10° WNW 02:39:12 15° NNW 02:42:15 10° N night (unlit)
09 Dec - 06:06:05 10° N 06:09:04 16° NNE 06:11:56 10° ENE visible
09 Dec - 07:47:58 10° NNW 07:52:47 59° NE 07:57:12 10° SE daylight
09 Dec - 09:31:29 10° WNW 09:34:49 19° WSW 09:37:59 10° SSW daylight
09 Dec - 22:25:49 10° SSE 22:30:23 24° ESE 22:34:44 10° ENE night (unlit)
10 Dec - 00:06:45 10° SW 00:12:36 70° NW 00:18:02 10° NNE night (unlit)
10 Dec - 01:52:03 10° WNW 01:56:06 20° NNW 01:59:57 10° NNE night (unlit)
10 Dec - 05:23:52 10° N 05:25:55 12° NNE 05:27:55 10° NE visible
10 Dec - 07:05:28 10° NNW 07:10:02 37° NE 07:14:13 10° ESE visible
10 Dec - 08:48:16 10° NW 08:52:31 33° WSW 08:56:29 10° S daylight
10 Dec - 21:45:04 10° SE 21:48:06 14° ESE 21:51:02 10° ENE night (unlit)
10 Dec - 23:24:06 10° SSW 23:29:59 78° ESE 23:35:27 10° NE night (unlit)
11 Dec - 01:08:22 10° W 01:13:07 26° NW 01:17:35 10° NNE night (unlit)
11 Dec - 02:56:20 10° NNW 02:57:34 11° NNW 02:58:46 10° N visible
11 Dec - 04:42:01 10° N 04:42:41 10° NNE 04:43:20 10° NNE visible
11 Dec - 06:23:03 10° NNW 06:27:08 25° NE 06:30:57 10° E visible
11 Dec - 08:05:24 10° NW 08:10:06 59° WSW 08:14:26 10° SSE daylight
11 Dec - 22:41:48 10° S 22:47:27 50° ESE 22:52:44 10° NE night (unlit)
12 Dec - 00:24:55 10° WSW 00:30:14 37° NW 00:35:11 10° NNE night (unlit)
12 Dec - 02:11:53 10° NW 02:14:20 13° NNW 02:16:43 10° N night (unlit)
12 Dec - 05:40:41 10° NNW 05:44:08 19° NNE 05:47:24 10° ENE visible
12 Dec - 07:22:43 10° NNW 07:27:34 82° NE 07:31:59 10° SE daylight
12 Dec - 09:07:06 10° WNW 09:09:17 13° WSW 09:11:26 10° SW daylight
12 Dec - 21:59:53 10° S 22:05:00 32° ESE 22:09:50 10° NE night (unlit)
12 Dec - 23:41:46 10° SW 23:47:27 53° NW 23:52:43 10° NNE night (unlit)
13 Dec - 01:27:44 10° WNW 01:31:11 16° NNW 01:34:27 10° N night (unlit)
13 Dec - 04:58:25 10° N 05:01:02 14° NNE 05:03:33 10° ENE visible
13 Dec - 06:40:10 10° NNW 06:44:53 49° NE 06:49:13 10° SE visible
13 Dec - 08:23:23 10° WNW 08:27:04 23° WSW 08:30:34 10° SSW daylight
13 Dec - 21:18:33 10° SSE 21:22:39 20° ESE 21:26:35 10° ENE night (unlit)
13 Dec - 22:58:54 10° SW 23:04:46 80° NW 23:10:11 10° NNE night (unlit)
14 Dec - 00:43:51 10° W 00:48:07 21° NW 00:52:09 10° NNE night (unlit)
14 Dec - 04:16:18 10° N 04:17:51 11° NNE 04:19:22 10° NE visible
14 Dec - 05:57:42 10° NNW 06:02:04 32° NE 06:06:08 10° ESE visible
14 Dec - 07:40:19 10° NW 07:44:44 40° WSW 07:48:50 10° S daylight
14 Dec - 20:38:26 10° ESE 20:40:24 12° ESE 20:42:20 10° E night (unlit)
14 Dec - 22:16:21 10° SSW 22:22:10 67° ESE 22:27:34 10° NE night (unlit)
